Voltar ao catálogo

STARLINK-32566

AtivoComunicaçõesVLEO
NORAD 61958·PAYLOAD·🇺🇸 United States

Lançado Nov 14, 2024 de Vandenberg Space Force Base

Loading…

Próximas Passagens (próximas 24 horas)

TLE

AtualizadoSource: CelesTrak SupGP

Época: Sep 15, 2026, 03:35 UTC

1 61958C 24209V   26258.14979167  .00054290  00000+0  16034-2 0  2586
2 61958  53.1597 332.9366 0001211  95.4897  19.9391 15.34376005    17

Acompanhe STARLINK-32566 em tempo real com AllMySat

Download on the App Store